Regional Weather Roundup
Issued by NWS Northern Indiana

Home | Current Version | Previous Version | Graphics & Text | Print | Product List | Glossary On
Versions: 1 2 3 4 5 6 7 8 9 10 11 12 13 14 15 16 17 18 19 20 21 22 23 24 25 26 27 28 29 30 31 32 33 34 35 36 37 38 39 40 41 42 43 44 45 46 47 48 49 50
000
ASUS43 KIWX 202000
RWRIWX

KIWX WEATHER ROUNDUP
NATIONAL WEATHER SERVICE NORTHERN INDIANA
400 PM EDT WED AUG 20 2014

NOTE: "FAIR" INDICATES FEW OR NO CLOUDS BELOW 12,000 FEET WITH NO
SIGNIFICANT WEATHER AND/OR OBSTRUCTIONS TO VISIBILITY.

* THESE STATIONS ARE NOT UNDER NWS QUALITY CONTROL. THEY ALSO MAY NOT
  REPORT WEATHER SUCH AS PRECIPITATION OR FOG.

INZ001>027-202100-
NORTHERN INDIANA

CITY           SKY/WX    TMP DP  RH WIND       PRES   REMARKS
GARY*          PTSUNNY   86  63  45 SW12      29.90F
VALPARAISO     MOSUNNY   84  63  49 W14       29.92F
KNOX*          SUNNY     84  64  50 W13       29.90F
SOUTH BEND     PTSUNNY   82  32  16 SW9       29.91F
ELKHART*       PTSUNNY   82  63  51 W8        29.92
GOSHEN         MOSUNNY   83  67  58 W10       29.92F
MONTICELLO*    CLOUDY    82  70  66 SW10      29.92F
WARSAW*        PTSUNNY   82  64  54 W16       29.92F
ANGOLA*        SUNNY     84  79  84 NW13      29.92F HX  96
FORT WAYNE     PTSUNNY   83  65  54 W13       29.92F
PERU/GRISSOM   MOSUNNY   85  69  59 W14       29.93F

$$
INZ028>050-202100-
CENTRAL INDIANA

CITY           SKY/WX    TMP DP  RH WIND       PRES   REMARKS
LAFAYETTE      CLOUDY    78  69  73 SW10      29.93F
KOKOMO*        PTSUNNY   84  66  54 W13G21    29.93F
MUNCIE*        PTSUNNY   84  65  52 W13G20    29.95F
INDIANAPOLIS   CLOUDY    75  66  73 W7        29.94F

$$
MIZ043>046-050>051-056>058-064>065-071>073-077>080-202100-
SOUTHWEST LOWER MICHIGAN

CITY           SKY/WX    TMP DP  RH WIND       PRES   REMARKS
BATTLE CREEK   PTSUNNY   82  64  54 W13       29.92F
BENTON HARBOR  SUNNY     81  63  54 W8        29.91F
COLDWATER*     CLOUDY    83  65  53 W13G20    29.91F
HILLSDALE*     PTSUNNY   80  66  61 W7        29.93S
HOLLAND        SUNNY     79  66  64 W8        29.92F
GRAND RAPIDS   PTSUNNY   80  67  64 W18       29.91S
KALAMAZOO      MOSUNNY   83  62  49 NW15G22   29.91F
STURGIS*       MOSUNNY   82  63  51 W13       29.91F
THREE RIVERS*  FAIR      82  65  55 NW15G21   29.91F

$$
OHZ001>008-015>018-024>025-202100-
NORTHWEST OHIO

CITY           SKY/WX    TMP DP  RH WIND       PRES   REMARKS
DEFIANCE       MOSUNNY   84  65  52 VRB6      29.91F
FINDLAY        MOSUNNY   85  64  49 W20G26    29.91F
TOLEDO EXPRESS CLOUDY    81  66  60 W15       29.90S
TOLEDO METCALF PTSUNNY   84  64  50 SW20G26   29.90F
LIMA           MOSUNNY   82  66  58 W12G20    29.94F

$$
&&


USA.gov is the U.S. government's official web portal to all federal, state and local government web resources and services.